Location: Daerah Kuala Lumpur
(3.1167°N, 101.6833°E)
Time: 09:41:52
(UTC+00:00)

Cosmos 724 - Pass Details

Date: 05 August 2024
Orbit: 862 x 932 km, 65.6° (Epoch: 14 September)

Event Time Altitude Azimuth Distance (km) Brightness Sun altitude
Exits shadow 21:54:17 18° 200° (SSW) 2,063 5.9 -19.3°
Maximum altitude 21:58:53 89° 110° (ESE) 882 4.2 -18.2°
Drops below altitude 10° 22:04:42 10° 21° (NNE) 2,506 7.2 -16.9°
Sets 22:07:09 0° 21° (NNE) 3,435 8.0 -16.3°
